Voltar ao catálogo

FENGYUN 1C DEB

AtivoSSO
NORAD 30671·DEBRIS·🇨🇳 China

Lançado May 10, 1999 de Taiyuan Satellite Launch Center

Loading…

Próximas Passagens (próximas 24 horas)

TLE

AtualizadoSource: Space-Track

Época: Sep 14, 2026, 11:01 UTC

1 30671U 99025AQD 26257.45908509  .00000856  00000-0  61248-3 0  9997
2 30671  99.2323 328.0942 0124633   2.2353  10.2973 13.96345838990425

Acompanhe FENGYUN 1C DEB em tempo real com AllMySat

Download on the App Store